Temp
22 23 23 25 25 25 25 25 25 25 25 25 24 24 25 25 25 24 24 24 23 23 23 23 24 24 24 24 24 24 24 24 23 24 25 25 25 25 26 26 25 25 25
23 23 23 25 25 25 25 26 25 25 25 25 24 24 24 25 25 24 24 24 24 23 23 23 24 24 24 24 24 24 24 24 23 23 24 25 25 25 25 25 25 25 25
22 22 22 23 24 24 25 25 26 25 25 25 25 25 25 25 25 24 24 24 24 24 24 23 24 24 24 24 24 24 24 24 23 23 23 24 24 24 25 25 25 25 25
22 22 22 23 24 24 25 25 25 25 25 26 25 25 25 25 25 25 24 24 24 24 24 24 24 24 24 24 24 24 24 24 23 23 23 23 23 24 24 24 24 25 25
23 22 22 23 23 23 23 24 25 25 25 26 26 26 25 25 25 25 25 25 24 25 25 24 24 24 24 24 24 24 24 24 24 23 23 22 23 24 23 23 23 24 24
22 22 22 22 22 23 23 23 24 24 24 25 25 26 26 25 26 25 25 25 24 24 25 25 24 24 24 24 24 24 24 23 23 23 22 22 22 23 23 23 23 22 22
22 22 22 22 22 22 22 22 23 23 24 24 24 24 25 26 26 26 26 25 25 25 25 25 25 25 24 24 24 24 24 24 24 23 23 22 23 23 24 23 22 22 21
20 22 21 22 22 22 21 22 22 22 22 23 23 23 24 25 26 26 26 25 25 25 25 25 25 25 25 25 24 24 24 24 24 24 24 24 24 24 24 23 22 22 22
20 21 22 21 21 21 21 21 21 21 22 22 22 22 22 23 24 25 25 24 24 25 25 25 25 25 25 25 24 24 24 24 24 24 24 24 24 24 24 23 23 21 21
19 19 20 21 21 21 21 21 21 21 21 21 22 22 23 23 23 24 24 23 22 23 23 24 25 25 25 25 24 24 23 24 25 25 25 25 25 25 24 24 23 21 21
18 19 19 20 20 22 21 21 21 21 21 21 21 21 22 22 22 23 23 22 21 22 22 22 23 25 25 24 24 24 24 25 25 24 24 24 24 24 24 24 24 23 22
18 18 19 19 20 20 21 21 21 21 21 20 21 21 21 22 22 22 23 23 22 22 22 22 22 23 24 25 24 25 25 24 23 22 22 22 22 24 25 24 24 24 24
18 19 18 18 18 19 20 20 20 20 21 20 21 21 21 21 21 22 22 23 22 22 22 22 23 23 23 24 23 24 24 22 22 21 21 22 22 24 24 24 24 23 23
16 18 18 18 17 17 18 19 20 21 21 21 21 21 21 21 21 21 22 22 22 22 22 22 22 22 22 22 22 23 23 23 23 22 22 23 23 23 23 24 23 22 22
15 15 16 16 15 16 18 19 20 20 22 22 22 22 22 22 22 22 22 22 22 23 21 20 20 20 20 21 21 21 21 22 22 23 22 22 22 23 23 24 23 22 21
13 13 14 15 16 15 16 18 20 21 21 22 23 22 22 23 23 23 22 22 23 23 20 20 20 20 21 21 21 21 20 21 22 22 22 22 22 23 23 24 22 21 21
12 11 12 13 14 15 15 16 18 20 22 22 23 23 23 23 23 23 23 23 22 21 20 20 20 21 21 21 21 21 21 20 21 21 21 21 22 23 22 22 21 21 21
10 10 10 11 13 14 15 16 17 19 21 21 23 23 23 23 23 23 23 23 22 20 20 21 21 21 21 20 20 20 20 20 20 21 21 21 21 22 21 20 20 20 20
9 9 10 11 13 13 14 15 16 17 18 21 22 23 23 23 23 22 22 23 21 20 20 20 21 21 21 21 20 20 20 20 20 20 20 20 20 20 20 20 20 20 18
8 9 9 10 11 12 13 14 15 17 18 20 21 21 21 20 21 21 21 22 21 21 21 20 20 21 21 21 20 20 21 20 20 20 20 20 20 20 20 19 19 18 18
8 8 9 10 11 12 13 14 15 16 18 20 21 21 22 22 22 21 19 19 20 20 21 21 20 20 20 21 21 20 20 20 20 20 20 20 19 18 19 19 19 19 19
7 8 9 10 11 12 13 14 15 16 17 19 21 21 21 20 20 20 20 20 19 19 20 20 20 21 20 20 20 20 19 19 19 19 19 18 18 18 19 19 19 18 18
8 8 9 9 11 12 12 13 15 16 17 19 20 20 20 20 19 19 19 19 18 18 18 19 19 19 19 19 19 19 19 19 18 18 18 19 19 18 18 17 17 17 16
7 7 8 10 12 12 12 14 15 16 17 18 19 18 18 17 17 16 15 15 14 14 14 15 14 15 15 16 16 16 16 16 17 18 19 19 17 17 16 17 16 16 15
5 5 6 6 7 7 8 8 10 12 15 16 16 15 14 13 12 11 11 10 10 9 9 9 10 11 10 10 11 13 13 14 14 14 15 16 16 16 16 16 15 15 14
3 3 3 4 4 5 5 5 6 7 9 9 9 8 7 6 6 5 5 6 6 6 6 7 8 8 8 8 8 9 10 11 12 12 13 12 12 12 12 13 13 13 13
Height
816 818 823 826 831 835 837 841 845 849 852 854 857 861 863 866 869 871 873 875 877 879 881 882 883 883 884 885 886 886 886 886 886 884 883 881 880 878 875 873 871 869 866
808 814 817 820 826 830 832 836 840 844 847 850 853 856 859 862 865 867 870 871 874 876 878 879 880 881 881 882 884 884 884 884 884 882 881 879 878 876 874 872 869 867 863
805 809 813 816 820 824 827 830 834 838 842 845 848 851 854 857 859 862 865 868 870 872 874 876 877 878 878 879 881 881 882 881 881 880 878 877 875 874 872 870 867 864 862
801 805 808 810 813 817 820 824 828 831 835 838 842 845 849 852 854 857 860 862 865 867 869 871 873 874 875 876 877 878 878 878 878 877 875 874 873 871 870 868 864 861 859
793 795 797 802 806 810 815 817 820 825 828 831 834 838 842 845 848 851 854 856 859 861 864 866 868 869 871 872 872 873 874 874 873 872 871 870 869 868 867 866 862 859 856
786 788 792 796 799 802 806 811 813 817 821 824 826 830 833 837 841 845 848 850 853 855 857 860 862 864 865 866 867 868 869 869 868 869 867 866 865 865 864 863 860 858 855
780 784 786 789 792 795 798 803 806 808 812 816 819 822 824 828 832 837 841 844 846 848 850 853 855 857 859 860 861 862 862 863 863 864 862 862 860 860 860 859 857 855 853
775 781 784 785 788 790 793 795 798 801 804 806 810 814 816 818 823 828 832 836 837 839 842 844 847 850 852 854 855 854 854 855 856 857 856 855 855 855 856 855 854 851 849
773 778 781 781 783 784 787 787 790 795 797 799 801 806 809 810 813 817 824 827 829 829 832 835 838 841 843 846 848 847 847 846 848 849 849 849 849 849 850 849 848 848 845
778 777 777 777 778 778 779 780 783 787 789 792 793 796 798 801 804 807 813 818 820 821 823 824 827 831 833 836 839 840 839 837 840 841 841 842 842 842 843 842 842 841 841
781 777 775 773 773 773 774 776 777 780 784 785 787 788 790 792 794 797 800 806 810 812 814 816 816 819 823 826 828 830 830 832 833 834 834 834 834 834 835 835 835 834 833
777 773 771 770 769 769 769 769 770 773 775 777 779 781 781 783 785 788 790 793 799 803 803 805 807 810 812 816 819 820 822 826 827 827 827 825 825 825 825 825 825 825 825
772 765 764 765 764 765 765 765 765 766 766 766 769 770 771 774 775 777 780 783 787 793 795 796 799 800 804 806 808 811 814 816 818 818 818 816 816 817 818 817 818 818 818
766 762 757 757 760 760 757 758 759 758 757 757 758 759 761 765 767 767 770 775 778 781 784 788 790 793 795 796 799 802 804 806 807 808 808 808 809 810 811 811 810 810 810
762 759 755 752 753 754 753 752 749 747 748 747 746 748 751 752 753 756 758 763 766 769 776 780 782 784 786 788 789 791 793 796 798 798 798 799 801 803 803 804 803 803 802
756 752 748 748 747 749 746 742 741 738 738 739 739 740 740 740 745 748 750 757 761 766 769 771 772 774 775 777 778 780 781 783 784 787 788 790 792 793 795 795 796 796 795
742 744 744 743 742 742 742 738 732 730 730 730 729 732 733 734 737 740 744 749 754 760 759 761 762 763 764 766 768 770 770 771 774 776 778 780 782 783 786 787 788 790 789
736 737 740 736 734 735 732 733 728 728 725 720 718 720 722 725 727 732 738 743 746 748 749 752 754 754 753 755 757 759 761 764 765 767 768 770 771 773 776 778 780 781 782
735 732 729 729 728 728 727 726 721 722 720 714 711 711 711 715 718 723 729 731 733 736 738 741 744 746 744 745 748 750 752 754 755 758 758 760 762 764 765 768 770 773 777
722 723 724 725 719 720 719 716 713 712 710 707 701 702 703 707 706 707 713 720 723 725 727 729 731 734 735 735 739 741 743 746 747 747 750 753 755 756 758 760 764 769 770
716 715 713 714 712 713 708 705 703 702 701 696 695 695 696 698 692 691 702 706 709 715 719 719 721 723 727 727 729 732 734 736 738 739 741 744 748 750 752 755 759 764 764
708 704 704 701 699 701 698 695 692 692 690 688 685 688 687 689 680 692 695 699 702 705 708 710 712 713 716 718 719 722 725 728 731 732 735 738 742 747 752 754 754 758 762
699 696 698 697 695 692 689 685 685 687 682 681 678 676 675 676 682 687 689 691 694 697 700 702 704 705 709 711 711 714 716 718 722 726 732 736 739 738 745 750 752 755 758
693 691 687 683 679 677 676 675 675 674 671 673 673 672 674 672 678 683 685 688 692 694 695 696 700 700 704 706 708 711 713 717 717 717 717 715 735 735 742 745 749 753 756
687 685 683 681 677 675 674 671 669 665 663 668 667 667 670 671 678 681 684 687 691 693 694 696 697 699 704 707 710 711 713 715 718 718 720 723 718 735 742 744 745 750 754
683 681 679 676 674 672 669 668 668 665 663 662 664 667 673 671 680 684 686 687 690 693 697 697 698 703 706 712 714 716 716 719 720 720 717 722 722 727 746 746 746 750 753
Wind_Speed
33 38 38 39 37 33 33 30 25 20 15 18 20 18 19 18 16 16 14 13 13 13 13 13 12 10 9 8 7 6 5 5 4 8 12 14 14 18 21 19 17 13 21
39 38 40 41 39 37 35 35 31 28 24 16 17 16 17 20 19 19 18 16 16 15 14 13 13 11 10 9 9 9 9 7 8 10 14 15 19 19 19 19 15 19 21
29 32 34 38 39 39 38 36 35 33 30 26 20 18 19 19 20 21 23 21 18 18 16 15 14 13 13 11 12 11 11 11 10 11 14 17 20 20 21 19 19 19 18
29 31 31 36 40 42 40 39 37 36 35 33 30 26 22 20 21 21 21 25 23 20 19 19 18 17 16 14 15 15 14 15 14 14 17 19 20 21 20 19 22 22 24
33 34 38 40 40 40 39 40 39 39 39 38 36 32 29 25 23 23 23 24 28 25 22 21 22 21 20 19 19 17 17 17 17 17 19 18 20 20 18 18 21 24 25
33 33 33 33 36 40 41 40 40 39 39 41 40 39 37 34 31 27 24 24 27 28 26 24 23 23 23 22 22 22 21 21 22 20 19 17 21 22 22 22 22 15 6
22 30 33 35 34 36 38 38 39 41 40 40 41 41 41 40 38 35 32 28 28 29 29 28 28 26 24 23 23 24 25 25 26 26 26 23 25 24 24 24 19 17 12
8 22 28 35 34 33 32 35 39 38 37 39 40 41 42 44 42 40 38 36 34 34 33 32 32 30 28 26 24 25 26 26 26 26 27 27 27 24 22 21 19 20 20
10 11 24 27 33 34 32 34 36 32 34 36 37 37 39 42 41 41 41 40 40 40 39 37 36 35 34 30 27 27 28 30 28 27 27 27 25 24 22 22 20 14 10
16 14 14 22 27 30 36 33 33 32 34 33 34 37 39 41 39 37 37 39 34 38 38 40 39 38 37 35 32 31 30 33 29 27 28 27 25 25 22 22 21 17 13
15 14 13 12 18 27 29 32 31 32 29 29 30 33 36 38 40 36 34 38 35 32 33 31 38 42 40 38 37 35 36 33 32 30 30 30 28 28 25 24 23 21 20
18 14 13 13 13 19 21 30 33 32 31 30 28 28 32 38 37 36 34 35 39 34 32 31 34 37 38 37 34 36 35 34 33 34 31 30 31 33 31 29 22 23 24
22 18 14 15 14 16 18 23 24 30 30 29 28 28 28 29 35 34 35 35 36 43 37 35 35 35 34 34 34 33 30 30 30 28 30 33 33 34 30 25 22 19 23
22 22 17 16 16 17 15 21 26 26 27 28 27 28 27 26 29 29 33 37 36 38 46 41 39 35 34 35 33 32 32 31 31 32 33 34 33 30 27 25 22 20 20
22 21 20 16 14 15 16 19 23 32 32 30 32 30 27 27 32 33 33 37 38 40 39 37 31 31 30 31 33 35 34 33 32 33 34 33 31 30 28 26 24 22 20
19 15 16 17 19 18 18 18 17 24 31 39 39 33 31 35 28 31 31 34 33 32 31 29 27 27 27 27 27 28 30 37 40 39 37 34 31 30 28 27 24 23 22
18 15 16 17 17 20 18 15 14 21 24 35 39 44 37 32 29 30 28 28 32 31 28 24 26 25 27 28 28 27 29 30 34 34 34 35 35 32 29 26 23 21 23
19 17 19 18 19 21 18 18 13 18 19 21 27 42 45 44 37 32 29 26 32 37 30 26 25 28 28 28 28 27 27 27 30 32 31 32 33 32 25 24 24 25 24
22 21 15 18 20 24 22 22 18 20 22 23 23 27 35 45 38 36 30 34 32 28 35 32 30 29 28 30 30 28 29 29 28 27 28 28 28 27 26 24 22 20 17
22 23 22 23 20 21 23 20 20 21 22 21 19 24 24 23 27 33 38 40 33 31 28 31 33 33 32 31 29 28 27 27 29 28 26 26 27 29 26 23 20 14 17
22 23 21 21 21 22 20 21 21 21 24 22 23 25 34 31 23 19 25 38 39 34 31 30 32 31 30 31 31 27 27 28 28 27 27 26 25 22 19 14 11 14 14
25 21 23 23 21 22 22 23 21 24 25 27 28 23 24 28 16 21 21 25 29 31 32 33 32 32 32 32 30 31 29 26 26 24 22 19 17 13 14 16 16 19 19
22 23 24 26 28 27 25 24 24 27 24 26 24 25 27 21 21 21 21 21 21 21 23 26 27 25 25 25 25 27 28 26 22 18 14 13 15 16 17 20 22 21 19
18 18 20 18 21 22 21 22 23 26 24 23 23 22 21 22 21 19 18 18 17 16 16 17 18 17 16 16 17 19 20 19 19 18 19 18 16 16 19 19 19 19 18
9 7 5 3 4 7 8 7 11 13 14 18 18 21 22 22 21 21 21 20 20 20 20 20 19 17 14 13 14 14 14 16 16 17 14 17 19 11 16 18 18 16 15
4 5 8 11 12 10 8 8 7 5 12 17 19 20 22 24 23 24 25 27 29 29 29 29 29 27 25 22 18 16 16 14 14 13 17 16 18 16 9 12 11 12 12
Wind_Direction
213 212 217 220 221 220 218 220 226 231 239 240 243 241 241 239 238 241 241 243 249 246 245 246 253 260 267 270 271 271 286 295 287 309 318 327 331 333 335 342 348 349 344
214 214 218 223 225 224 221 222 224 228 231 235 239 242 235 238 240 241 242 245 245 249 251 246 251 258 268 263 267 264 274 285 276 292 310 316 318 328 331 334 344 341 343
213 215 217 222 226 228 229 225 223 226 229 231 234 235 239 242 247 247 245 244 248 253 253 254 256 257 259 259 267 276 278 275 277 281 295 306 312 324 326 332 335 338 345
218 219 220 222 227 232 232 232 230 227 228 229 232 235 240 247 250 253 253 245 243 250 253 254 257 260 263 267 271 271 278 273 279 284 290 299 306 315 319 325 330 336 338
216 215 221 226 229 232 234 236 235 235 232 231 231 234 238 241 246 248 252 250 241 244 249 254 258 259 263 266 269 270 270 273 276 279 286 291 297 307 312 317 317 328 333
220 218 222 220 223 228 234 237 238 239 239 237 234 233 234 237 241 244 249 252 246 245 250 255 258 263 265 266 266 265 266 269 272 274 278 279 289 297 306 311 312 323 322
231 222 218 221 220 224 230 231 234 237 240 241 240 237 236 237 239 241 243 248 250 250 253 258 262 264 267 268 268 267 265 265 266 272 273 274 284 293 302 306 309 307 294
265 236 227 222 226 227 225 229 234 233 232 237 239 242 240 240 240 241 242 241 245 250 253 257 260 264 267 269 272 272 270 269 267 267 269 275 281 289 290 294 298 295 299
350 274 237 229 229 228 225 226 232 228 229 229 237 240 241 243 243 245 243 242 242 245 250 254 257 260 264 267 268 273 274 271 269 269 271 275 278 280 283 286 286 285 287
345 319 280 245 233 229 230 228 230 229 230 231 230 238 245 248 247 245 244 239 238 241 245 250 253 256 260 264 264 268 265 268 269 271 272 274 278 280 277 276 279 263 263
318 328 321 274 258 239 234 232 228 230 229 229 233 236 241 245 246 242 240 236 232 236 238 240 248 253 255 260 263 262 262 268 271 274 277 278 277 278 275 278 272 263 255
299 310 314 301 290 264 239 229 226 225 225 227 228 234 239 244 245 244 239 236 236 230 233 237 241 247 256 262 262 263 264 268 268 270 272 273 274 276 278 283 274 261 256
292 294 303 304 289 276 267 244 223 221 222 225 224 228 231 234 238 240 243 238 236 234 236 239 243 251 256 260 260 262 264 260 259 260 260 265 267 276 282 278 278 264 253
277 280 287 297 290 286 270 264 242 232 223 223 221 226 226 226 227 227 234 237 238 238 239 241 243 244 250 258 262 261 257 257 258 260 261 268 272 274 272 272 268 259 244
267 265 270 273 274 274 272 269 248 238 230 225 225 222 215 221 223 223 230 232 234 235 235 235 237 238 241 247 253 255 258 257 254 257 260 262 267 270 265 265 263 247 227
262 259 261 266 273 276 278 284 281 266 249 242 235 225 223 229 228 230 231 238 248 248 231 228 228 230 234 238 241 243 245 249 252 251 253 256 258 258 257 261 253 234 232
273 263 267 264 266 268 269 267 287 292 271 248 240 235 233 234 230 234 236 234 240 238 225 228 226 224 228 232 237 237 237 240 249 248 248 247 250 249 248 247 243 235 238
275 272 266 265 264 268 272 270 261 269 278 265 256 242 238 236 236 237 234 228 230 228 229 232 230 225 227 230 234 235 237 238 242 245 245 245 238 233 231 235 237 237 239
274 272 262 261 257 262 265 269 269 265 264 271 259 257 246 238 235 232 228 225 226 228 231 229 233 235 227 231 236 234 238 237 236 236 238 235 231 225 229 233 229 231 233
283 273 263 256 261 258 259 261 265 266 265 259 255 247 240 225 221 226 228 229 229 233 230 232 231 233 232 232 235 233 236 238 237 234 234 236 233 228 224 222 233 227 226
275 269 268 257 242 249 255 257 261 263 266 267 257 244 247 236 238 236 224 229 230 232 234 233 234 232 233 233 236 236 233 235 236 234 229 227 224 217 219 212 222 236 221
273 269 268 265 264 255 247 253 258 257 262 267 266 252 237 233 239 233 228 230 232 233 236 237 234 239 243 240 239 236 233 231 228 221 213 206 201 211 240 244 230 218 209
269 270 261 259 254 254 254 249 248 250 256 258 253 249 251 238 225 228 220 219 220 222 223 222 224 220 223 224 226 229 225 217 204 188 195 218 231 228 225 213 205 200 200
269 258 260 274 254 256 257 253 253 253 255 260 248 229 215 201 199 189 184 182 180 176 177 179 180 175 183 184 184 183 182 187 193 199 196 187 212 196 201 202 203 202 197
264 250 250 252 266 269 271 285 252 232 221 216 193 176 174 169 168 163 161 159 151 144 139 137 133 133 130 131 138 144 151 158 157 153 154 168 160 190 209 205 194 186 185
67 73 70 64 56 52 51 50 36 91 126 132 135 133 137 133 137 142 142 143 141 131 122 119 116 111 106 104 108 111 117 118 118 121 130 127 122 130 156 152 152 162 162